[[{"header":{"parameterUnit":"m.s-1","parameterCategory":1,"la1":30.2991,"la2":30.254,"lo1":-89.0895,"lo2":-89.0444,"dy":0.0017,"dx":0.0017,"nx":28,"ny":28,"refTime":"2023-10-05T09:00:00:Z","depth":0,"parameterNumber":2,"parameterNumberName":"U-component_of_WINDS"},"data":[0,0,0,0,0,0,0,0,0,0,0,0,0,0,0,0,0,0,0,0,0,0,0,0,0,0,0,0,0,0,0,0,0,0,0,0,0,0,0,0,0,0,0,0,0,0,0,0,0,0,0,0,0,0,0,0,0,0,-0.317,-0.317,0,-0.3164,-0.3164,-0.3164,-0.3124,-0.3123,-0.3122,-0.3121,-0.3117,-0.3117,-0.3118,0,0,0,0,0,0,0,0,0,0,0,0,0,-0.3148,-0.3149,-0.317,-0.317,-0.317,-0.3164,-0.3164,-0.3164,-0.3124,-0.3123,-0.3122,-0.3121,-0.3116,-0.3117,-0.3118,0,0,0,0,0,0,0,0,0,0,0,0,0,-0.3152,-0.3149,-0.317,-0.3149,-0.3148,-0.3164,-0.3164,-0.3164,-0.3125,-0.3123,-0.3122,-0.312,-0.3116,-0.3117,-0.3118,-0.3155,0,0,-0.3122,-0.3123,0,0,0,0,0,0,0,0,-0.3152,-0.3153,-0.3153,-0.3151,-0.3149,-0.3144,-0.3155,-0.3161,-0.3125,-0.3133,-0.3121,-0.312,-0.3127,-0.3127,-0.3129,-0.3155,-0.3155,-0.3122,-0.3123,-0.3123,-0.3124,0,0,0,0,0,0,0,-0.3151,-0.3153,-0.3168,-0.3153,-0.315,-0.3141,-0.314,-0.3156,-0.3139,-0.3133,-0.313,-0.3129,-0.3126,-0.3128,-0.3129,-0.3155,-0.3122,-0.3123,-0.3124,-0.3124,-0.3212,-0.3213,0,0,0,0,0,0,-0.3154,-0.3153,-0.3168,-0.3168,-0.3147,-0.3143,-0.3141,-0.3147,-0.3138,-0.3135,-0.3131,-0.3128,-0.3127,-0.3128,-0.3129,-0.3172,-0.3123,-0.3124,-0.3125,-0.321,-0.3212,-0.3214,0,0,0,0,0,0,-0.3154,-0.3156,-0.3168,-0.3159,-0.316,-0.3144,-0.3151,-0.3147,-0.315,-0.3137,-0.3134,-0.3137,-0.3126,-0.3127,-0.3149,-0.3171,-0.3125,-0.3126,-0.3208,-0.3211,-0.3213,-0.3259,0,0,0,0,0,0,-0.3153,-0.3156,-0.3169,-0.316,-0.3161,-0.3189,-0.3152,-0.3148,-0.3152,-0.3148,-0.3141,-0.3139,-0.3125,-0.3148,-0.315,-0.3172,-0.3127,-0.3206,-0.3209,-0.3212,-0.3256,-0.3263,-0.3269,0,0,0,0,0,-0.3152,-0.3182,-0.317,-0.3172,-0.3177,-0.319,-0.3191,-0.3173,-0.3154,-0.3168,-0.3159,-0.3139,-0.3168,-0.315,-0.3153,-0.3176,-0.3205,-0.3208,-0.3212,-0.3253,-0.3261,-0.3269,0,0,0,0,0,0,-0.3195,-0.3181,-0.3167,-0.3195,-0.3194,-0.3183,-0.32,-0.3183,-0.3188,-0.3184,-0.3162,-0.3161,-0.3187,-0.3183,-0.3163,-0.3211,-0.3183,-0.3188,-0.3213,-0.3221,-0.3228,-0.3229,-0.3128,0,0,0,0,0,-0.3207,-0.3218,-0.3205,-0.3231,-0.3231,-0.3216,-0.3221,-0.3208,-0.3206,-0.3206,-0.3199,-0.3198,-0.3208,-0.3214,-0.3222,-0.3255,-0.3253,-0.3272,-0.3278,-0.3284,-0.3288,-0.3307,-0.3315,-0.3226,-0.3226,-0.3226,0,0,-0.3233,-0.3227,-0.3235,-0.324,-0.3237,-0.325,-0.3216,-0.323,-0.324,-0.3208,-0.3229,-0.3224,-0.3222,-0.325,-0.3262,-0.3248,-0.3313,-0.3288,-0.3293,-0.3294,-0.3311,-0.332,-0.3327,-0.3228,-0.3228,-0.3227,0,0,-0.3287,-0.3283,-0.3305,-0.3303,-0.33,-0.329,-0.3295,-0.3287,-0.3283,-0.3303,-0.328,-0.3291,-0.3307,-0.3307,-0.3309,-0.3364,-0.3346,-0.3367,-0.3403,-0.3421,-0.3428,-0.3434,-0.3456,-0.3463,-0.3371,-0.3372,-0.3372,0,-0.332,-0.3338,-0.3318,-0.3334,-0.3338,-0.3309,-0.3331,-0.3331,-0.3331,-0.3334,-0.3318,-0.3338,-0.3334,-0.3363,-0.3376,-0.3379,-0.3385,-0.3368,-0.3429,-0.3435,-0.344,-0.346,-0.3468,-0.3374,-0.3374,-0.3374,-0.3373,0,-0.3379,-0.3392,-0.341,-0.341,-0.3415,-0.3435,-0.3419,-0.3426,-0.3413,-0.3404,-0.3426,-0.3421,-0.3428,-0.3433,-0.342,-0.346,-0.3452,-0.3432,-0.3404,-0.3452,-0.347,-0.3477,-0.3378,-0.3377,-0.3376,-0.3376,0,0,-0.346,-0.345,-0.3457,-0.3457,-0.3452,-0.3462,-0.348,-0.3487,-0.3494,-0.3495,-0.3511,-0.3525,-0.3508,-0.351,-0.3497,-0.3513,-0.3559,-0.3492,-0.3491,-0.3506,-0.3604,-0.362,-0.3629,-0.3546,-0.3548,-0.3549,-0.3605,0,-0.3513,-0.3543,-0.3527,-0.356,-0.3572,-0.3545,-0.3561,-0.3561,-0.3553,-0.3563,-0.3555,-0.3566,-0.3541,-0.3543,-0.3558,-0.355,-0.3578,-0.3546,-0.3562,-0.3563,-0.3565,-0.3638,-0.3655,-0.3708,-0.3612,-0.3613,-0.3614,0,-0.3579,-0.3583,-0.3617,-0.3611,-0.3616,-0.3631,-0.3636,-0.3645,-0.3644,-0.3638,-0.3641,-0.3624,-0.3642,-0.3613,-0.3639,-0.3617,-0.3623,-0.362,-0.3622,-0.3624,-0.3592,-0.3644,-0.3724,-0.3733,-0.3625,-0.3624,-0.3623,0,-0.3636,-0.365,-0.3673,-0.3674,-0.3667,-0.3678,-0.3676,-0.3673,-0.3678,-0.3683,-0.3686,-0.3693,-0.3697,-0.3703,-0.3689,-0.3669,-0.3717,-0.3687,-0.3714,-0.3714,-0.3726,-0.3726,-0.381,-0.3728,-0.3727,-0.3727,-0.3727,0,-0.3697,-0.372,-0.3699,-0.3713,-0.3738,-0.3718,-0.3744,-0.3738,-0.3736,-0.375,-0.3727,-0.374,-0.372,-0.3731,-0.372,-0.3744,-0.3745,-0.3742,-0.3739,-0.3745,-0.3745,-0.3749,-0.3745,-0.3729,-0.3729,-0.3728,-0.3728,0,-0.3766,-0.3752,-0.3776,-0.3767,-0.3766,-0.3785,-0.3778,-0.3791,-0.3782,-0.3799,-0.3802,-0.3789,-0.3801,-0.3787,-0.3798,-0.3791,-0.3824,-0.3815,-0.3824,-0.3822,-0.3851,-0.3849,-0.3941,-0.3953,-0.3862,-0.3863,-0.3863,0,-0.3807,-0.3824,-0.3817,-0.3824,-0.3823,-0.3835,-0.3841,-0.3822,-0.3829,-0.383,-0.3843,-0.3854,-0.3861,-0.3882,-0.3874,-0.3883,-0.3874,-0.3906,-0.3875,-0.3881,-0.3877,-0.3876,-0.3879,-0.3913,-0.3914,-0.3915,-0.3916,0,-0.3881,-0.3874,-0.3882,-0.3889,-0.3896,-0.3901,-0.3903,-0.391,-0.3892,-0.39,-0.3913,-0.3919,-0.393,-0.3941,-0.3948,-0.3946,-0.3928,-0.3925,-0.3932,-0.3939,-0.3944,-0.3943,-0.3843,-0.3923,-0.3923,-0.3922,-0.3922,-0.3921,-0.3938,-0.3952,-0.395,-0.3961,-0.3961,-0.3964,-0.3977,-0.397,-0.3979,-0.3988,-0.3976,-0.3992,-0.3991,-0.3998,-0.3999,-0.4011,-0.3998,-0.4007,-0.401,-0.4013,-0.4018,-0.3941,-0.4012,-0.4012,-0.4012,-0.4011,-0.4011,0,-0.4012,-0.401,-0.402,-0.4025,-0.4033,-0.4015,-0.4017,-0.4026,-0.404,-0.4041,-0.4049,-0.4064,-0.4075,-0.4067,-0.4077,-0.4088,-0.4081,-0.4092,-0.4091,-0.4091,-0.4029,-0.4023,-0.4098,-0.4098,-0.4098,-0.4098,-0.4098,-0.4098,-0.4052,-0.4076,-0.4069,-0.4092,-0.409,-0.4105,-0.4108,-0.4111,-0.4112,-0.413,-0.4139,-0.4133,-0.4131,-0.4141,-0.415,-0.4148,-0.4153,-0.4167,-0.4162,-0.4104,-0.4096,-0.4088,-0.4082,-0.4168,-0.4168,-0.4224,-0.4224,-0.4225]},{"header":{"parameterUnit":"m.s-1","parameterCategory":1,"la1":30.2991,"la2":30.254,"lo1":-89.0895,"lo2":-89.0444,"dy":0.0017,"dx":0.0017,"nx":28,"ny":28,"refTime":"2023-10-05T09:00:00:Z","depth":0,"parameterNumber":3,"parameterNumberName":"V-component_of_WINDS"},"data":[0,0,0,0,0,0,0,0,0,0,0,0,0,0,0,0,0,0,0,0,0,0,0,0,0,0,0,0,0,0,0,0,0,0,0,0,0,0,0,0,0,0,0,0,0,0,0,0,0,0,0,0,0,0,0,0,0,0,-2.9696,-2.9697,0,-2.974,-2.974,-2.9741,-2.9724,-2.9723,-2.9722,-2.9721,-2.9763,-2.9765,-2.9767,0,0,0,0,0,0,0,0,0,0,0,0,0,-2.9597,-2.9599,-2.9696,-2.9697,-2.9697,-2.974,-2.974,-2.9741,-2.9724,-2.9722,-2.9721,-2.972,-2.9762,-2.9765,-2.9767,0,0,0,0,0,0,0,0,0,0,0,0,0,-2.964,-2.9599,-2.9696,-2.9694,-2.9694,-2.9739,-2.974,-2.9741,-2.9724,-2.9722,-2.9721,-2.972,-2.9761,-2.9764,-2.9768,-2.9817,0,0,-2.9777,-2.9778,0,0,0,0,0,0,0,0,-2.9638,-2.9644,-2.9694,-2.9694,-2.9694,-2.9725,-2.9721,-2.9766,-2.9724,-2.9713,-2.9721,-2.9719,-2.9751,-2.9755,-2.9767,-2.9819,-2.9821,-2.9777,-2.9779,-2.978,-2.9781,0,0,0,0,0,0,0,-2.9635,-2.9642,-2.9713,-2.9694,-2.9695,-2.969,-2.9695,-2.9729,-2.974,-2.9713,-2.9712,-2.9718,-2.9751,-2.9764,-2.9767,-2.9821,-2.9777,-2.978,-2.9782,-2.9783,-2.9919,-2.9921,0,0,0,0,0,0,-2.9632,-2.9639,-2.9712,-2.9715,-2.9662,-2.9693,-2.9698,-2.9716,-2.9739,-2.9741,-2.9719,-2.9717,-2.9759,-2.9764,-2.9769,-2.9831,-2.978,-2.9783,-2.9785,-2.9917,-2.9919,-2.9921,0,0,0,0,0,0,-2.963,-2.9638,-2.971,-2.9677,-2.9686,-2.9697,-2.9717,-2.9718,-2.9731,-2.9744,-2.9745,-2.973,-2.9758,-2.9764,-2.9806,-2.9832,-2.9785,-2.9788,-2.9915,-2.9918,-2.992,-2.9953,0,0,0,0,0,0,-2.9627,-2.9638,-2.9657,-2.9677,-2.9687,-2.9747,-2.9719,-2.972,-2.9736,-2.9734,-2.9754,-2.9756,-2.9757,-2.9801,-2.9809,-2.9835,-2.979,-2.9913,-2.9916,-2.9919,-2.995,-2.9956,-2.9962,0,0,0,0,0,-2.9624,-2.9663,-2.9658,-2.9667,-2.9712,-2.9748,-2.9754,-2.9755,-2.9738,-2.9758,-2.9766,-2.9756,-2.9827,-2.9806,-2.9814,-2.9842,-2.9911,-2.9915,-2.9919,-2.9947,-2.9955,-2.9962,0,0,0,0,0,0,-2.9645,-2.9666,-2.966,-2.9708,-2.9727,-2.9745,-2.977,-2.9763,-2.9787,-2.9783,-2.9783,-2.9788,-2.9831,-2.984,-2.9816,-2.9892,-2.9867,-2.9872,-2.9885,-2.9893,-2.9899,-2.9897,-2.9793,0,0,0,0,0,-2.9655,-2.9684,-2.97,-2.9741,-2.9751,-2.9759,-2.9775,-2.9774,-2.9793,-2.9801,-2.9812,-2.9831,-2.9857,-2.9875,-2.99,-2.995,-2.9955,-2.9973,-2.9979,-2.9984,-2.999,-3.0019,-3.0028,-2.9934,-2.9934,-2.9934,0,0,-2.9676,-2.9692,-2.9709,-2.9745,-2.976,-2.979,-2.9765,-2.9797,-2.982,-2.9805,-2.9846,-2.9855,-2.9875,-2.9922,-2.9943,-2.9931,-3.0017,-2.9989,-2.9993,-2.9996,-3.0024,-3.0033,-3.0041,-2.9937,-2.9936,-2.9936,0,0,-2.9731,-2.9745,-2.9782,-2.9797,-2.9819,-2.9825,-2.9834,-2.9854,-2.986,-2.9901,-2.9891,-2.9917,-2.9963,-2.9979,-2.9992,-3.0055,-3.0047,-3.0063,-3.0096,-3.0125,-3.0132,-3.0139,-3.0163,-3.0172,-3.0068,-3.0068,-3.0068,0,-2.9755,-2.98,-2.9801,-2.9835,-2.9851,-2.984,-2.9878,-2.9892,-2.9922,-2.9934,-2.9919,-2.9978,-2.9991,-3.0042,-3.0058,-3.0068,-3.0079,-3.0061,-3.0131,-3.0138,-3.0144,-3.0167,-3.0176,-3.007,-3.007,-3.0069,-3.0069,0,-2.983,-2.9861,-2.9888,-2.9918,-2.9938,-2.9973,-2.9979,-2.9998,-2.9996,-3.0003,-3.0046,-3.006,-3.009,-3.0101,-3.0098,-3.0153,-3.0145,-3.0131,-3.0106,-3.0155,-3.0177,-3.0186,-3.0073,-3.0072,-3.0071,-3.0071,0,0,-2.99,-2.9931,-2.9941,-2.9956,-2.9981,-3.0005,-3.0039,-3.0069,-3.0087,-3.0107,-3.0138,-3.0177,-3.0165,-3.0181,-3.018,-3.0204,-3.0256,-3.0187,-3.0188,-3.0202,-3.0319,-3.0332,-3.0342,-3.025,-3.0251,-3.0253,-3.0319,0,-2.9959,-3.0022,-3.0024,-3.0081,-3.0111,-3.0102,-3.0132,-3.0151,-3.0158,-3.0184,-3.0192,-3.0221,-3.0201,-3.0211,-3.0235,-3.0245,-3.028,-3.0239,-3.0279,-3.028,-3.0277,-3.0353,-3.0366,-3.0428,-3.0327,-3.0328,-3.0329,0,-3.0036,-3.0061,-3.0123,-3.0145,-3.0157,-3.0185,-3.0214,-3.0238,-3.0259,-3.0263,-3.0282,-3.0277,-3.0313,-3.0286,-3.0336,-3.0309,-3.0325,-3.0332,-3.0334,-3.034,-3.031,-3.0363,-3.0447,-3.0458,-3.0342,-3.0341,-3.034,0,-3.0085,-3.0133,-3.0177,-3.0189,-3.0216,-3.0236,-3.0247,-3.0267,-3.0285,-3.0309,-3.0322,-3.0349,-3.0365,-3.0386,-3.0389,-3.0369,-3.0441,-3.0413,-3.0446,-3.0446,-3.0464,-3.0463,-3.0554,-3.047,-3.0469,-3.0469,-3.0469,0,-3.0152,-3.0191,-3.02,-3.0227,-3.027,-3.0271,-3.0313,-3.0323,-3.0341,-3.037,-3.0362,-3.0389,-3.039,-3.0418,-3.0421,-3.0464,-3.047,-3.0474,-3.0475,-3.0477,-3.0477,-3.0489,-3.0486,-3.0472,-3.0471,-3.0471,-3.047,0,-3.0215,-3.0222,-3.0269,-3.0291,-3.0297,-3.0328,-3.0346,-3.0372,-3.0379,-3.0416,-3.0424,-3.0435,-3.0468,-3.0472,-3.051,-3.0512,-3.0564,-3.0558,-3.0558,-3.0558,-3.0592,-3.059,-3.0696,-3.0711,-3.0614,-3.0615,-3.0616,0,-3.0258,-3.0288,-3.0313,-3.0333,-3.0346,-3.0377,-3.0397,-3.0399,-3.0419,-3.0446,-3.0469,-3.0501,-3.0527,-3.058,-3.059,-3.062,-3.0617,-3.0652,-3.0621,-3.0623,-3.062,-3.062,-3.0624,-3.0658,-3.0659,-3.066,-3.0661,0,-3.0336,-3.0339,-3.0367,-3.0398,-3.0422,-3.0445,-3.0468,-3.0484,-3.0489,-3.0512,-3.0546,-3.0567,-3.0606,-3.0639,-3.0668,-3.0679,-3.0672,-3.067,-3.068,-3.0684,-3.0683,-3.0687,-3.0577,-3.0668,-3.0668,-3.0667,-3.0667,-3.0666,-3.0393,-3.042,-3.0442,-3.0475,-3.0492,-3.0514,-3.054,-3.0551,-3.058,-3.0613,-3.0612,-3.065,-3.0671,-3.071,-3.0723,-3.0753,-3.0742,-3.0755,-3.0759,-3.0763,-3.0768,-3.0676,-3.0758,-3.0758,-3.0758,-3.0757,-3.0757,0,-3.0473,-3.0487,-3.0517,-3.055,-3.0576,-3.0566,-3.0591,-3.0613,-3.0647,-3.0668,-3.0694,-3.0734,-3.0766,-3.0779,-3.0811,-3.0832,-3.083,-3.084,-3.084,-3.0844,-3.0775,-3.0765,-3.0842,-3.0842,-3.0842,-3.0842,-3.0842,-3.0842,-3.0517,-3.0564,-3.0569,-3.0624,-3.0637,-3.0676,-3.0691,-3.0711,-3.0728,-3.0774,-3.0801,-3.0809,-3.0828,-3.086,-3.0889,-3.0892,-3.0905,-3.0919,-3.092,-3.0856,-3.0848,-3.084,-3.0831,-3.0921,-3.0921,-3.0987,-3.0988,-3.0988]}]]